CST,Max TemperatureF,Mean TemperatureF,Min TemperatureF,Max Dew PointF,MeanDew PointF,Min DewpointF,Max Humidity, Mean Humidity, Min Humidity, Max Sea Level PressureIn, Mean Sea Level PressureIn, Min Sea Level PressureIn, Max VisibilityMiles, Mean VisibilityMiles, Min VisibilityMiles, Max Wind SpeedMPH, Mean Wind SpeedMPH, Max Gust SpeedMPH,PrecipitationIn, CloudCover, Events, WindDirDegrees
2014-1-1,13,8,4,6,4,-1,83,77,72,30.40,30.26,30.12,10,8,0,17,12,23,0.00,6,Snow,8
2014-1-2,10,4,-1,2,-2,-7,84,76,66,30.46,30.41,30.36,10,10,5,9,6,,0.00,2,Snow,3
2014-1-3,39,22,6,30,16,0,79,72,66,30.34,29.87,29.56,10,10,10,24,15,33,0.00,1,,179
2014-1-4,39,24,9,32,16,2,83,73,66,30.24,29.96,29.61,10,10,10,33,13,40,0.00,4,,320
2014-1-5,11,2,-8,1,-7,-18,70,60,41,30.54,30.40,30.24,10,10,7,31,20,38,0.00,4,,335
2014-1-6,8,0,-8,-7,-12,-19,74,60,47,30.50,30.42,30.25,10,10,7,18,9,23,0.00,2,,286
2014-1-7,30,14,-2,14,5,-9,78,66,50,30.25,30.12,30.02,10,10,10,13,4,,0.00,2,,86
2014-1-8,24,20,16,15,12,9,86,70,57,30.39,30.32,30.24,10,10,4,13,6,,0.00,8,Snow,62
2014-1-9,31,18,6,28,15,2,88,78,63,30.34,30.12,29.90,10,9,5,15,9,20,0.00,4,,156
2014-1-10,34,31,28,33,30,25,98,92,80,29.89,29.66,29.54,10,4,0,16,9,,0.03,7,Fog-Snow,178
2014-1-11,48,37,26,28,23,17,81,63,29,29.81,29.74,29.62,10,10,10,20,11,26,0.00,1,,274
2014-1-12,55,43,31,31,27,24,77,55,32,29.68,29.56,29.45,10,10,10,18,11,22,0.00,2,,254
2014-1-13,48,38,28,27,23,20,78,56,34,29.86,29.75,29.66,10,10,10,17,11,26,0.00,2,,269
2014-1-14,47,30,12,32,13,0,69,46,23,30.24,30.03,29.65,10,10,10,33,20,46,0.00,2,,322
2014-1-15,43,24,7,28,12,1,75,59,42,30.24,30.02,29.74,10,10,10,16,7,22,0.00,3,,227
2014-1-16,45,31,16,28,14,-1,58,44,31,30.09,29.86,29.71,10,10,7,40,23,54,0.00,5,,315
2014-1-17,35,23,11,14,1,-9,55,42,18,30.18,30.06,29.80,10,10,10,20,14,31,0.00,2,,296
2014-1-18,43,28,14,27,19,11,84,59,44,30.09,29.85,29.65,10,10,10,44,19,54,0.00,4,Rain,300
2014-1-19,66,40,15,20,16,7,86,43,11,30.00,29.81,29.67,10,10,10,28,11,32,0.00,0,,267
2014-1-20,47,25,3,29,15,-9,77,56,33,30.48,30.08,29.84,10,10,4,36,14,51,0.00,2,Rain,323
2014-1-21,30,14,-3,19,-9,-15,67,45,21,30.53,30.28,30.04,10,10,10,22,9,25,0.00,3,,233
2014-1-22,31,16,0,18,5,-12,80,58,36,30.61,30.24,30.05,10,10,2,33,11,40,0.00,4,Snow,323
2014-1-23,17,6,-5,-8,-11,-14,69,50,28,30.82,30.69,30.42,10,10,10,16,10,21,0.00,0,,290
2014-1-24,52,32,12,32,14,-12,61,45,26,30.41,29.96,29.70,10,10,10,24,17,43,0.00,4,Rain,254
2014-1-25,45,37,30,32,24,10,83,61,36,30.08,29.87,29.55,10,10,5,26,14,39,0.00,5,,304
2014-1-26,54,30,5,30,17,-10,64,46,19,30.32,29.78,29.53,10,10,7,40,20,53,0.00,3,,301
2014-1-27,12,5,-2,-8,-13,-18,67,48,28,30.49,30.43,30.32,10,10,10,20,8,23,0.00,0,,327
2014-1-28,20,6,-8,-7,-12,-18,70,47,24,30.46,30.35,30.21,10,10,10,16,3,23,0.00,0,,272
2014-1-29,46,21,-4,9,0,-13,72,43,17,30.21,29.92,29.57,10,10,10,25,8,31,0.00,0,,185
2014-1-30,40,29,18,21,9,5,64,44,24,30.07,29.73,29.41,10,10,10,29,18,36,0.00,5,,315
2014-1-31,25,19,13,17,5,1,87,57,37,30.16,30.05,29.96,10,9,2,12,7,,0.00,6,Snow,50